Radiation Dose at Monitoring Post of Fukushima Daini Nuclear Power Station
Date,Time,MP-1(microSv/h),MP-2(microSv/h),MP-3(microSv/h),MP-4(microSv/h),MP-5(microSv/h),MP-6(microSv/h),MP-7(microSv/h),Wind Direction,Wind Velocity(m/s),Rain
2019/10/23,00:00,0.176,0.158,0.263,0.247,0.256,0.133,0.083,northwest,12.0,No
2019/10/23,00:10,0.178,0.158,0.264,0.248,0.255,0.133,0.083,northwest,11.7,No
2019/10/23,00:20,0.177,0.157,0.265,0.245,0.255,0.132,0.083,north-northwest,10.6,No
2019/10/23,00:30,0.177,0.158,0.264,0.247,0.255,0.134,0.083,north-northwest,11.5,Yes
2019/10/23,00:40,0.177,0.157,0.265,0.247,0.256,0.131,0.083,northwest,12.3,No
2019/10/23,00:50,0.178,0.157,0.263,0.248,0.254,0.134,0.084,northwest,11.5,No
2019/10/23,01:00,0.177,0.158,0.266,0.246,0.255,0.133,0.083,northwest,10.4,Yes
2019/10/23,01:10,0.177,0.157,0.264,0.247,0.254,0.132,0.083,northwest,9.8,Yes
2019/10/23,01:20,0.178,0.157,0.264,0.248,0.256,0.133,0.083,north-northwest,10.3,Yes
2019/10/23,01:30,0.177,0.158,0.265,0.246,0.255,0.133,0.083,northwest,9.2,Yes
2019/10/23,01:40,0.178,0.158,0.263,0.249,0.256,0.133,0.084,northwest,10.1,No
2019/10/23,01:50,0.177,0.159,0.267,0.246,0.255,0.134,0.084,northwest,9.8,No
2019/10/23,02:00,0.177,0.158,0.265,0.248,0.255,0.134,0.083,northwest,10.4,No
2019/10/23,02:10,0.177,0.158,0.266,0.248,0.256,0.132,0.083,northwest,9.2,No
2019/10/23,02:20,0.177,0.158,0.264,0.248,0.255,0.133,0.084,northwest,9.8,No
2019/10/23,02:30,0.178,0.157,0.266,0.249,0.257,0.133,0.083,northwest,9.6,No
2019/10/23,02:40,0.178,0.158,0.265,0.248,0.255,0.134,0.083,northwest,9.6,No
2019/10/23,02:50,0.178,0.157,0.266,0.249,0.258,0.134,0.084,north-northwest,9.5,No
2019/10/23,03:00,0.178,0.158,0.264,0.247,0.255,0.134,0.084,north-northwest,9.8,No
2019/10/23,03:10,0.177,0.158,0.265,0.247,0.257,0.134,0.084,northwest,9.5,No
2019/10/23,03:20,0.179,0.158,0.267,0.248,0.255,0.134,0.083,north-northwest,10.6,No
2019/10/23,03:30,0.178,0.158,0.265,0.249,0.257,0.134,0.084,northwest,8.7,No
2019/10/23,03:40,0.178,0.158,0.267,0.249,0.256,0.134,0.083,northwest,9.0,No
2019/10/23,03:50,0.178,0.158,0.265,0.250,0.257,0.134,0.084,northwest,8.7,No
2019/10/23,04:00,0.179,0.157,0.267,0.249,0.256,0.133,0.084,north-northwest,9.2,No
2019/10/23,04:10,0.178,0.158,0.265,0.248,0.256,0.133,0.084,northwest,9.0,No
2019/10/23,04:20,0.180,0.158,0.265,0.249,0.257,0.134,0.083,northwest,9.2,No
2019/10/23,04:30,0.178,0.158,0.266,0.248,0.255,0.135,0.083,north-northwest,9.8,No
2019/10/23,04:40,0.179,0.159,0.266,0.248,0.258,0.134,0.083,northwest,9.2,No
2019/10/23,04:50,0.178,0.158,0.267,0.249,0.254,0.134,0.084,northwest,8.4,No
2019/10/23,05:00,0.179,0.159,0.265,0.249,0.257,0.133,0.084,northwest,8.8,No
2019/10/23,05:10,0.178,0.158,0.266,0.250,0.255,0.134,0.084,northwest,8.7,No
2019/10/23,05:20,0.178,0.158,0.266,0.248,0.257,0.134,0.084,north-northwest,8.7,No
2019/10/23,05:30,0.179,0.158,0.267,0.249,0.255,0.134,0.084,northwest,8.2,No
2019/10/23,05:40,0.178,0.159,0.267,0.249,0.257,0.134,0.083,northwest,9.5,No
2019/10/23,05:50,0.180,0.160,0.267,0.250,0.258,0.134,0.084,northwest,8.8,No
2019/10/23,06:00,0.178,0.158,0.268,0.249,0.255,0.134,0.084,northwest,9.2,No
2019/10/23,06:10,0.179,0.158,0.266,0.248,0.256,0.135,0.083,northwest,9.6,No
2019/10/23,06:20,0.178,0.159,0.268,0.250,0.256,0.135,0.083,northwest,9.0,No
2019/10/23,06:30,0.180,0.159,0.267,0.249,0.258,0.133,0.083,northwest,8.4,No
2019/10/23,06:40,0.179,0.159,0.267,0.249,0.256,0.135,0.083,northwest,8.4,No
2019/10/23,06:50,0.179,0.158,0.267,0.248,0.256,0.134,0.083,northwest,8.5,No
2019/10/23,07:00,0.179,0.158,0.266,0.249,0.256,0.134,0.083,northwest,8.2,No
2019/10/23,07:10,0.178,0.158,0.268,0.250,0.256,0.134,0.083,west-northwest,7.4,No
2019/10/23,07:20,0.179,0.159,0.267,0.249,0.256,0.134,0.083,northwest,8.1,No
2019/10/23,07:30,0.178,0.158,0.266,0.248,0.256,0.134,0.083,northwest,8.2,No
2019/10/23,07:40,0.180,0.157,0.264,0.248,0.257,0.135,0.084,northwest,6.8,No
2019/10/23,07:50,0.178,0.158,0.268,0.247,0.256,0.135,0.083,north-northwest,5.8,No
2019/10/23,08:00,0.180,0.157,0.265,0.249,0.256,0.135,0.083,north-northwest,5.7,No
2019/10/23,08:10,0.178,0.159,0.268,0.247,0.257,0.134,0.083,north-northwest,6.0,No
2019/10/23,08:20,0.179,0.158,0.266,0.249,0.256,0.134,0.084,north-northwest,7.4,No
2019/10/23,08:30,0.178,0.159,0.269,0.249,0.256,0.133,0.083,north-northwest,8.1,No
2019/10/23,08:40,0.180,0.157,0.267,0.249,0.255,0.135,0.082,northwest,6.2,No
2019/10/23,08:50,0.178,0.158,0.269,0.250,0.257,0.135,0.083,north-northwest,5.9,No
2019/10/23,09:00,0.180,0.158,0.266,0.248,0.254,0.135,0.083,northwest,6.3,No
2019/10/23,09:10,0.179,0.157,0.269,0.248,0.257,0.134,0.084,northwest,4.8,No
2019/10/23,09:20,0.178,0.159,0.266,0.251,0.256,0.134,0.083,north-northwest,7.3,No
2019/10/23,09:30,0.179,0.158,0.269,0.249,0.254,0.135,0.083,north-northwest,6.1,No
2019/10/23,09:40,0.179,0.157,0.267,0.248,0.257,0.135,0.083,north-northwest,6.5,No
2019/10/23,09:50,0.177,0.159,0.269,0.247,0.256,0.134,0.082,north-northwest,6.2,No
2019/10/23,10:00,0.178,0.159,0.266,0.249,0.254,0.135,0.083,north-northwest,4.9,No
2019/10/23,10:10,0.179,0.157,0.267,0.250,0.253,0.135,0.084,north-northwest,7.3,No
2019/10/23,10:20,0.178,0.158,0.268,0.250,0.257,0.136,0.083,north-northwest,6.2,No
2019/10/23,10:30,0.178,0.158,0.269,0.249,0.256,0.134,0.083,north-northwest,6.6,No
2019/10/23,10:40,0.177,0.158,0.268,0.249,0.255,0.135,0.083,north-northwest,7.6,No
2019/10/23,10:50,0.180,0.156,0.267,0.249,0.255,0.135,0.083,north,7.6,No
2019/10/23,11:00,0.178,0.159,0.267,0.247,0.253,0.136,0.083,north,6.1,No
2019/10/23,11:10,0.179,0.158,0.266,0.249,0.254,0.135,0.083,north,7.5,No
2019/10/23,11:20,0.177,0.158,0.268,0.247,0.259,0.135,0.084,north,6.7,No
2019/10/23,11:30,0.181,0.158,0.268,0.247,0.259,0.136,0.084,north-northeast,7.9,No
2019/10/23,11:40,0.180,0.159,0.266,0.252,0.257,0.136,0.084,north-northeast,5.6,No
2019/10/23,11:50,0.178,0.160,0.269,0.252,0.255,0.135,0.084,north-northeast,6.7,No
2019/10/23,12:00,0.178,0.159,0.267,0.251,0.255,0.135,0.084,north-northeast,6.8,No
2019/10/23,12:10,0.180,0.159,0.267,0.248,0.259,0.136,0.084,north-northeast,6.2,No
2019/10/23,12:20,0.180,0.160,0.269,0.251,0.258,0.136,0.084,north-northeast,6.5,No
2019/10/23,12:30,0.179,0.159,0.267,0.252,0.254,0.135,0.084,north-northeast,7.3,No
2019/10/23,12:40,0.180,0.160,0.268,0.251,0.258,0.135,0.085,north-northeast,6.9,No
2019/10/23,12:50,0.181,0.159,0.269,0.250,0.259,0.137,0.084,north-northeast,6.9,No
2019/10/23,13:00,0.179,0.158,0.267,0.253,0.256,0.135,0.084,northeast,4.1,No
2019/10/23,13:10,0.180,0.161,0.269,0.250,0.260,0.136,0.084,northeast,6.4,No
2019/10/23,13:20,0.178,0.159,0.267,0.251,0.258,0.137,0.084,northeast,7.0,No
2019/10/23,13:30,0.181,0.159,0.266,0.253,0.256,0.136,0.084,northeast,6.0,No
2019/10/23,13:40,0.180,0.160,0.270,0.252,0.256,0.135,0.085,northeast,5.0,No
2019/10/23,13:50,0.178,0.158,0.268,0.249,0.253,0.136,0.084,northeast,4.2,No
2019/10/23,14:00,0.178,0.158,0.267,0.250,0.258,0.135,0.083,northeast,3.8,No
2019/10/23,14:10,0.181,0.160,0.266,0.252,0.257,0.136,0.084,north-northeast,2.7,No
2019/10/23,14:20,0.180,0.158,0.269,0.252,0.255,0.135,0.084,north-northeast,2.3,No
2019/10/23,14:30,0.179,0.159,0.267,0.250,0.255,0.136,0.084,north-northeast,2.6,No
2019/10/23,14:40,0.180,0.159,0.269,0.253,0.259,0.136,0.085,northeast,2.3,No
2019/10/23,14:50,0.180,0.158,0.268,0.251,0.258,0.136,0.084,northeast,2.5,No
2019/10/23,15:00,0.178,0.160,0.269,0.252,0.257,0.136,0.084,north,2.5,No
2019/10/23,15:10,0.181,0.159,0.270,0.254,0.260,0.135,0.084,northeast,2.3,No
2019/10/23,15:20,0.179,0.159,0.267,0.252,0.257,0.136,0.084,northeast,3.2,No
2019/10/23,15:30,0.179,0.159,0.270,0.253,0.260,0.136,0.084,east-northeast,2.6,No
2019/10/23,15:40,0.180,0.159,0.268,0.251,0.258,0.136,0.083,east-northeast,2.2,No
2019/10/23,15:50,0.180,0.159,0.271,0.251,0.257,0.136,0.084,east-northeast,2.0,No
2019/10/23,16:00,0.180,0.159,0.268,0.252,0.258,0.136,0.084,east-northeast,1.4,No
2019/10/23,16:10,0.179,0.159,0.270,0.253,0.256,0.136,0.084,east-northeast,4.7,No
2019/10/23,16:20,0.181,0.159,0.269,0.253,0.259,0.136,0.084,northeast,2.5,No
2019/10/23,16:30,0.179,0.160,0.269,0.251,0.256,0.136,0.084,east-northeast,2.7,No
2019/10/23,16:40,0.180,0.159,0.267,0.253,0.259,0.135,0.084,east-northeast,2.0,No
2019/10/23,16:50,0.179,0.160,0.269,0.252,0.256,0.136,0.084,east-northeast,1.4,No
2019/10/23,17:00,0.179,0.159,0.270,0.253,0.259,0.135,0.084,east-northeast,3.1,No
2019/10/23,17:10,0.179,0.158,0.269,0.252,0.257,0.136,0.084,east-northeast,2.2,No
2019/10/23,17:20,0.179,0.159,0.268,0.253,0.257,0.135,0.084,east,1.4,No
2019/10/23,17:30,0.180,0.160,0.268,0.250,0.259,0.135,0.084,east-northeast,2.2,Yes
2019/10/23,17:40,0.180,0.160,0.269,0.253,0.257,0.135,0.084,east-northeast,2.3,Yes
2019/10/23,17:50,0.180,0.159,0.269,0.251,0.259,0.136,0.084,northeast,1.9,No
2019/10/23,18:00,0.179,0.158,0.270,0.251,0.256,0.136,0.084,northeast,1.6,No
2019/10/23,18:10,0.181,0.158,0.268,0.251,0.259,0.136,0.083,east-northeast,2.3,No
2019/10/23,18:20,0.179,0.159,0.270,0.253,0.258,0.137,0.084,east,1.7,No
2019/10/23,18:30,0.181,0.160,0.268,0.251,0.260,0.136,0.083,east,1.5,No
2019/10/23,18:40,0.179,0.160,0.269,0.251,0.257,0.137,0.084,-,CALM,No
2019/10/23,18:50,0.181,0.159,0.268,0.252,0.259,0.136,0.085,east-northeast,1.3,No
2019/10/23,19:00,0.179,0.160,0.270,0.253,0.257,0.136,0.084,east,0.9,No
2019/10/23,19:10,0.181,0.159,0.268,0.251,0.260,0.135,0.084,east-northeast,1.4,No
2019/10/23,19:20,0.181,0.161,0.269,0.252,0.256,0.138,0.084,east,1.7,No
2019/10/23,19:30,0.180,0.158,0.270,0.251,0.258,0.136,0.083,east,1.6,No
2019/10/23,19:40,0.179,0.160,0.269,0.253,0.256,0.136,0.083,east,1.5,No
2019/10/23,19:50,0.181,0.159,0.270,0.251,0.259,0.137,0.084,east-southeast,1.5,No
2019/10/23,20:00,0.180,0.160,0.269,0.253,0.257,0.137,0.085,east,0.7,No
2019/10/23,20:10,0.180,0.160,0.269,0.251,0.258,0.136,0.084,east-southeast,1.9,No
2019/10/23,20:20,0.182,0.159,0.269,0.253,0.258,0.136,0.085,east-northeast,1.4,No
2019/10/23,20:30,0.180,0.159,0.270,0.252,0.259,0.136,0.084,east-southeast,0.6,No
2019/10/23,20:40,0.179,0.159,0.268,0.253,0.256,0.136,0.085,south-southeast,1.3,No
2019/10/23,20:50,0.180,0.160,0.269,0.251,0.258,0.136,0.085,south-southeast,1.6,No
2019/10/23,21:00,0.181,0.159,0.269,0.253,0.257,0.137,0.085,south-southeast,1.8,No
2019/10/23,21:10,0.180,0.161,0.268,0.251,0.259,0.136,0.084,south-southeast,2.0,No
2019/10/23,21:20,0.181,0.159,0.269,0.254,0.257,0.137,0.083,south-southeast,2.2,No
2019/10/23,21:30,0.180,0.160,0.269,0.253,0.258,0.137,0.085,south-southeast,1.1,No
2019/10/23,21:40,0.182,0.159,0.268,0.252,0.258,0.137,0.084,south-southeast,0.8,No
2019/10/23,21:50,0.181,0.160,0.269,0.252,0.258,0.136,0.084,south-southeast,1.7,No
2019/10/23,22:00,0.181,0.160,0.270,0.254,0.259,0.138,0.084,south,1.8,No
2019/10/23,22:10,0.180,0.160,0.270,0.253,0.259,0.137,0.084,south-southeast,2.1,No
2019/10/23,22:20,0.182,0.160,0.268,0.252,0.258,0.137,0.084,south,1.6,No
2019/10/23,22:30,0.180,0.160,0.271,0.252,0.259,0.136,0.084,south,1.3,No
2019/10/23,22:40,0.182,0.160,0.269,0.251,0.258,0.137,0.084,south-southeast,1.1,No
2019/10/23,22:50,0.181,0.159,0.271,0.253,0.259,0.136,0.085,south,1.6,No
2019/10/23,23:00,0.181,0.160,0.268,0.252,0.258,0.137,0.084,south,1.1,No
2019/10/23,23:10,0.181,0.159,0.270,0.253,0.260,0.136,0.085,south,1.0,No
2019/10/23,23:20,0.180,0.160,0.269,0.253,0.257,0.137,0.085,south-southeast,1.8,No
2019/10/23,23:30,0.182,0.159,0.270,0.253,0.260,0.136,0.085,south-southeast,0.9,No
2019/10/23,23:40,0.181,0.160,0.269,0.251,0.257,0.137,0.085,south,1.2,No
2019/10/23,23:50,0.182,0.160,0.270,0.253,0.260,0.137,0.084,south-southeast,1.1,No
